Wind_Speed
21 21 21 22 22 23 24 25 24 24 24 24 24 24 25 25 26 26 26 26 26 27 28 29 30 31 31 31 31 31 31 31 32 32 32 31 31 31 32 31 31 30 31
21 21 21 22 22 23 23 23 22 23 23 23 23 24 25 26 26 26 26 25 26 26 27 28 29 29 30 30 30 30 30 31 31 31 31 30 31 32 31 31 31 30 31
20 20 21 21 21 22 21 22 22 22 23 23 23 24 25 25 25 25 25 25 25 26 26 26 27 28 29 28 28 28 29 30 30 30 30 29 30 31 31 30 30 30 31
19 20 20 21 20 20 21 22 22 22 22 23 24 24 25 25 25 25 25 25 25 25 25 26 26 27 27 27 28 28 28 28 28 29 29 29 29 30 30 30 30 29 29
19 20 21 20 19 19 20 21 21 22 22 23 23 24 25 24 25 25 25 25 25 25 25 25 26 26 26 26 27 27 27 28 27 27 27 27 28 29 28 28 30 29 29
19 20 20 19 19 20 20 20 22 22 22 22 23 24 25 25 25 24 25 25 26 25 25 26 26 26 26 26 26 27 27 27 26 26 26 26 27 27 27 27 28 28 28
20 20 19 19 20 20 20 20 21 22 22 22 22 23 23 24 23 22 23 25 25 26 26 26 25 25 25 25 26 27 26 26 26 26 26 26 27 26 26 26 27 27 28
18 18 18 19 20 20 21 21 21 22 21 21 22 22 22 22 22 22 22 23 23 24 25 25 25 25 25 25 26 26 26 26 25 25 25 24 24 24 24 25 26 26 26
18 18 18 19 19 20 21 21 21 21 21 21 21 21 21 22 22 22 22 23 24 24 24 24 24 25 24 25 25 25 25 25 24 24 23 22 22 23 23 23 25 25 25
18 19 19 19 20 20 19 19 20 20 20 21 21 21 22 21 22 22 22 23 23 23 23 24 24 24 23 23 24 24 24 24 24 23 21 20 20 21 21 21 21 22 23
19 19 20 20 20 19 18 19 19 19 19 19 20 20 21 21 21 22 22 22 22 22 22 22 23 23 22 22 23 23 23 23 23 22 21 20 20 20 20 20 20 20 22
20 20 19 19 18 18 18 18 18 18 18 18 18 19 19 19 20 20 21 21 21 21 22 22 21 21 21 22 22 22 22 22 22 22 21 20 19 19 18 18 18 19 20
20 19 19 19 18 18 18 18 17 17 17 17 17 18 18 18 19 19 20 20 19 20 21 20 19 19 19 20 21 21 21 21 21 20 19 18 18 18 18 17 17 18 19
19 19 19 19 19 18 18 17 17 17 17 16 17 17 18 18 18 18 19 19 19 19 19 19 18 18 19 19 19 20 20 20 20 19 18 17 17 17 17 17 18 18 18
19 18 18 18 18 18 17 16 15 15 16 16 16 17 17 17 17 18 18 18 18 18 19 18 17 18 18 18 19 19 19 19 19 19 18 17 17 18 17 18 19 20 20
20 19 19 18 17 17 16 15 15 15 16 15 16 16 16 16 17 17 17 17 17 17 17 17 17 18 18 18 19 20 20 20 20 19 19 18 18 17 17 18 19 19 20
20 20 19 18 17 16 16 15 15 15 15 14 15 15 16 16 16 16 16 17 17 16 16 16 17 18 18 19 19 20 20 20 20 20 19 18 18 18 17 18 18 18 19
20 19 19 18 17 16 15 15 14 14 13 13 14 15 15 15 15 15 15 15 16 16 16 17 18 18 18 19 19 19 19 20 20 19 19 19 19 19 18 18 18 19 19
19 19 19 18 17 15 14 14 13 13 12 12 13 14 14 14 14 14 14 14 15 16 16 17 17 18 18 18 18 18 19 19 19 20 20 20 20 19 19 19 19 19 19
18 18 18 16 14 13 13 13 11 11 11 12 12 13 13 13 13 13 14 14 16 17 17 17 17 17 17 18 18 19 20 20 20 20 21 21 21 20 19 19 19 19 19
16 16 15 13 13 11 11 11 10 10 10 11 11 12 12 12 12 13 13 14 16 16 16 17 17 17 18 19 19 20 21 21 21 21 22 22 21 21 21 20 20 19 19
13 13 13 12 12 11 10 9 8 8 9 10 10 11 12 12 12 13 13 14 15 15 16 17 17 18 19 19 19 20 21 21 21 22 22 22 22 22 22 21 20 20 19
11 11 11 11 11 10 8 7 7 8 8 9 10 11 11 11 11 12 13 13 14 15 16 17 17 18 18 18 19 20 21 22 22 23 22 23 23 23 23 22 21 20 19
10 10 10 10 8 7 6 5 5 6 6 7 9 10 10 11 11 12 12 13 14 15 16 17 17 18 19 19 20 21 22 22 23 23 23 23 23 23 23 23 22 21 20
9 8 8 7 6 5 4 4 4 5 6 6 8 9 10 11 11 11 12 13 14 15 17 18 18 19 19 20 22 23 23 23 23 24 24 24 24 24 24 24 23 23 22
7 7 6 5 4 4 3 3 3 4 5 6 7 8 9 11 11 11 12 13 15 16 18 19 19 20 21 22 23 23 24 24 25 25 25 25 25 25 24 24 24 23 23
Wind_Direction
282 280 279 277 274 273 275 278 278 281 281 283 284 286 290 291 292 295 296 297 297 297 297 296 294 292 292 292 292 290 288 286 285 283 281 278 277 277 277 274 273 270 267
284 284 280 275 273 273 275 276 278 280 280 282 283 285 289 291 292 295 297 297 298 299 298 298 296 294 294 293 293 291 291 288 285 284 282 280 278 276 277 274 272 271 269
287 285 280 276 277 276 276 278 280 280 279 282 285 287 289 291 293 294 295 297 299 301 301 301 299 297 297 297 296 296 295 292 287 284 283 282 280 279 277 274 272 272 269
289 286 283 280 279 278 278 279 278 278 280 282 285 288 290 291 292 293 295 297 300 301 302 302 303 300 298 299 300 299 298 296 292 288 286 284 280 278 275 274 272 272 270
292 290 287 285 283 279 279 281 280 280 280 283 285 288 290 290 290 292 294 297 299 300 301 304 304 304 303 303 303 303 302 299 296 292 290 286 282 279 275 274 271 270 269
290 290 287 286 287 287 284 283 282 280 281 283 286 288 290 291 291 292 294 296 298 300 302 306 307 306 306 306 305 303 304 302 299 295 291 287 284 280 276 275 273 272 270
287 289 290 289 291 290 288 287 285 285 286 288 288 289 291 292 292 293 294 296 297 300 303 305 308 308 307 308 307 305 305 303 300 298 295 290 286 284 279 276 275 273 271
288 291 292 293 292 292 289 288 286 287 288 290 290 290 292 294 294 296 297 300 301 302 305 307 309 309 309 310 309 308 308 307 304 300 298 294 289 287 284 279 277 275 273
294 293 293 295 294 294 291 287 286 287 288 289 291 293 294 296 297 298 300 303 303 304 306 308 309 309 309 310 311 311 311 309 307 304 301 298 294 291 286 281 278 277 275
294 294 292 293 295 293 289 288 288 288 289 290 292 293 296 299 299 299 301 304 305 305 304 306 307 308 309 310 310 311 313 312 308 304 301 298 296 294 290 284 281 280 276
293 293 292 293 295 290 288 290 288 288 292 293 295 296 298 301 301 301 302 303 304 306 308 309 309 307 309 310 311 311 312 312 311 308 303 299 298 298 294 288 283 281 278
291 292 292 292 294 292 289 291 291 292 296 299 298 299 302 305 307 306 305 306 307 309 311 312 313 311 311 311 312 312 312 313 312 309 306 303 301 300 298 292 284 282 279
291 291 291 290 290 289 289 289 289 293 296 298 299 302 304 308 309 309 310 311 313 315 315 315 316 315 315 315 315 314 315 315 315 314 310 307 305 304 299 293 288 284 282
290 292 292 293 290 286 284 286 289 294 298 300 299 301 305 307 309 311 312 314 315 317 320 319 318 317 317 319 320 320 321 320 320 318 315 312 310 309 304 299 293 291 287
292 291 292 294 293 288 284 287 290 293 295 296 299 302 304 306 308 312 315 316 316 319 321 321 321 321 321 323 324 324 324 324 322 322 320 317 312 310 307 303 297 292 288
290 288 288 288 290 290 286 288 290 293 297 298 298 302 304 307 311 314 316 319 321 324 325 324 323 323 323 324 325 325 325 326 325 323 322 318 314 312 310 306 302 295 292
286 285 286 289 291 289 287 286 289 292 299 298 301 305 308 310 313 316 317 320 323 325 326 326 325 325 325 324 324 324 324 324 324 323 322 321 318 314 312 309 306 300 296
287 287 286 286 289 289 288 288 288 295 299 301 305 308 310 314 316 317 319 321 324 327 328 327 326 327 326 326 327 326 325 326 327 326 324 322 321 319 314 310 307 301 298
287 288 290 286 284 286 288 291 291 296 299 306 309 312 315 318 318 320 323 326 328 330 329 328 328 327 328 328 331 330 330 329 328 325 322 321 320 318 315 312 308 304 299
286 288 290 287 280 283 288 290 294 301 303 309 313 316 320 321 322 323 324 328 331 332 333 332 332 331 330 330 331 332 330 328 327 326 326 324 323 321 316 314 309 304 300
286 285 286 282 277 281 284 286 294 298 306 312 316 320 323 324 325 325 326 328 331 333 335 335 334 333 331 330 330 330 330 330 328 327 325 325 323 322 319 316 312 307 302
287 283 279 276 275 276 278 281 292 303 310 313 318 325 326 326 326 328 330 330 332 333 332 332 333 333 333 332 331 331 331 331 330 329 326 325 323 321 320 318 315 312 308
287 279 273 271 271 270 274 276 290 307 312 313 320 327 331 331 331 333 334 333 334 335 335 335 335 335 335 335 333 333 333 332 331 330 327 326 324 323 321 319 317 313 310
282 277 271 271 270 269 266 273 294 308 316 319 326 333 336 337 336 337 338 338 339 339 339 341 340 339 338 336 335 334 333 333 333 332 330 329 328 327 324 321 318 314 311
277 273 269 267 268 268 273 281 294 310 324 331 337 341 343 342 339 340 343 345 346 346 345 345 344 343 341 340 339 338 337 337 336 334 333 331 329 327 325 323 318 314 310
259 259 258 258 265 267 271 273 291 309 322 330 339 345 349 348 347 346 348 350 351 351 349 348 348 346 344 342 341 341 341 340 339 337 335 333 331 328 326 323 319 314 311
Height
5850 5848 5847 5846 5845 5844 5843 5842 5840 5839 5837 5836 5834 5832 5830 5828 5826 5824 5822 5819 5816 5813 5810 5807 5804 5801 5798 5795 5793 5789 5787 5784 5781 5780 5778 5777 5775 5774 5772 5771 5771 5770 5770
5846 5844 5842 5841 5840 5839 5838 5837 5835 5834 5832 5831 5829 5827 5825 5823 5821 5819 5816 5813 5810 5807 5804 5801 5798 5795 5792 5789 5785 5782 5778 5776 5773 5771 5769 5768 5768 5765 5764 5763 5762 5762 5762
5841 5839 5837 5836 5835 5834 5833 5831 5830 5829 5828 5825 5824 5822 5820 5818 5816 5813 5811 5808 5805 5801 5799 5795 5792 5788 5785 5781 5778 5774 5771 5768 5765 5763 5761 5759 5758 5757 5757 5756 5755 5754 5754
5836 5834 5833 5831 5830 5829 5828 5826 5825 5824 5822 5820 5819 5818 5815 5813 5811 5808 5806 5803 5799 5796 5793 5789 5786 5782 5778 5775 5771 5768 5764 5760 5757 5755 5753 5751 5750 5749 5749 5748 5747 5747 5746
5832 5830 5828 5827 5825 5824 5822 5821 5820 5819 5817 5816 5814 5812 5810 5808 5805 5803 5800 5797 5794 5791 5787 5784 5780 5776 5772 5769 5765 5761 5757 5754 5751 5748 5746 5744 5742 5741 5740 5740 5740 5739 5739
5828 5826 5824 5822 5821 5819 5818 5816 5815 5814 5812 5810 5809 5807 5805 5803 5800 5797 5794 5792 5789 5785 5782 5778 5774 5770 5767 5763 5759 5755 5752 5748 5744 5741 5739 5737 5735 5734 5732 5732 5731 5731 5731
5823 5822 5820 5818 5816 5815 5813 5811 5810 5808 5807 5805 5803 5802 5800 5797 5795 5792 5789 5786 5783 5780 5777 5773 5769 5765 5761 5757 5753 5750 5746 5742 5739 5735 5732 5730 5729 5726 5725 5724 5724 5723 5723
5818 5817 5815 5813 5811 5809 5808 5806 5804 5803 5801 5800 5798 5796 5794 5792 5789 5787 5784 5781 5777 5774 5771 5767 5763 5759 5756 5752 5748 5744 5740 5736 5733 5730 5726 5723 5722 5720 5718 5717 5716 5716 5716
5814 5812 5810 5808 5806 5804 5802 5800 5799 5798 5796 5794 5792 5790 5788 5786 5784 5781 5778 5775 5772 5769 5765 5761 5758 5754 5750 5746 5743 5739 5735 5731 5727 5724 5721 5718 5716 5714 5712 5711 5710 5709 5709
5810 5808 5806 5803 5801 5799 5797 5795 5794 5793 5791 5789 5787 5785 5783 5780 5778 5775 5772 5769 5766 5763 5759 5755 5752 5748 5745 5741 5737 5734 5730 5726 5722 5718 5715 5713 5710 5708 5706 5705 5704 5703 5702
5804 5802 5801 5799 5796 5794 5792 5791 5789 5788 5786 5784 5782 5780 5777 5775 5772 5769 5766 5763 5760 5757 5753 5750 5746 5743 5739 5736 5732 5729 5725 5721 5717 5714 5711 5708 5705 5703 5701 5699 5698 5697 5697
5799 5797 5795 5793 5792 5790 5788 5786 5785 5783 5781 5779 5777 5775 5772 5769 5767 5764 5761 5758 5755 5752 5748 5745 5741 5738 5734 5731 5727 5724 5720 5716 5713 5709 5706 5703 5700 5698 5696 5694 5693 5692 5691
5794 5792 5790 5789 5787 5785 5783 5782 5780 5778 5776 5774 5772 5770 5767 5765 5762 5759 5756 5753 5750 5747 5743 5740 5736 5733 5729 5726 5723 5719 5716 5712 5708 5704 5701 5698 5696 5693 5691 5690 5688 5687 5686
5788 5787 5785 5783 5782 5780 5778 5777 5775 5773 5771 5769 5767 5765 5763 5761 5758 5755 5752 5749 5746 5743 5739 5735 5732 5728 5725 5722 5718 5715 5711 5708 5704 5700 5697 5694 5692 5689 5687 5685 5684 5682 5680
5782 5781 5779 5778 5776 5775 5773 5772 5770 5769 5767 5765 5763 5761 5759 5756 5754 5751 5748 5745 5742 5739 5735 5731 5728 5724 5721 5718 5715 5711 5708 5704 5700 5697 5694 5690 5688 5685 5683 5681 5679 5677 5675
5776 5775 5774 5772 5771 5770 5769 5768 5766 5765 5763 5760 5759 5757 5755 5752 5750 5747 5744 5741 5738 5735 5731 5728 5725 5721 5718 5715 5712 5708 5704 5701 5697 5694 5690 5687 5684 5681 5678 5676 5674 5672 5670
5770 5769 5768 5767 5766 5765 5764 5763 5762 5761 5758 5756 5755 5753 5751 5748 5746 5743 5740 5738 5735 5731 5728 5725 5721 5718 5715 5712 5709 5705 5701 5698 5694 5690 5687 5683 5680 5677 5674 5671 5669 5667 5665
5765 5764 5763 5762 5761 5760 5760 5759 5758 5756 5755 5753 5751 5749 5747 5745 5742 5740 5737 5734 5731 5728 5725 5722 5719 5715 5712 5709 5705 5701 5698 5694 5690 5687 5683 5680 5676 5672 5669 5667 5664 5662 5660
5760 5759 5758 5757 5756 5756 5755 5755 5754 5752 5751 5750 5748 5746 5744 5742 5739 5736 5734 5731 5728 5725 5722 5719 5715 5712 5709 5706 5702 5698 5695 5691 5687 5683 5680 5676 5672 5669 5666 5663 5660 5657 5654
5755 5754 5753 5752 5751 5751 5751 5751 5750 5748 5748 5747 5745 5743 5741 5739 5736 5734 5731 5729 5726 5723 5719 5716 5712 5709 5706 5703 5699 5695 5692 5688 5683 5680 5676 5672 5668 5664 5661 5658 5655 5652 5649
5749 5748 5748 5748 5748 5748 5747 5747 5746 5746 5745 5744 5743 5741 5738 5736 5733 5731 5729 5726 5723 5720 5717 5713 5710 5707 5703 5700 5696 5692 5688 5684 5680 5676 5672 5668 5664 5660 5656 5653 5650 5646 5643
5744 5744 5743 5744 5744 5744 5744 5744 5743 5743 5742 5742 5740 5738 5736 5733 5731 5729 5726 5724 5721 5718 5714 5711 5708 5704 5700 5697 5693 5689 5685 5681 5676 5672 5668 5664 5660 5655 5651 5648 5644 5641 5638
5740 5740 5740 5740 5741 5741 5741 5741 5741 5741 5740 5739 5738 5736 5734 5731 5729 5726 5724 5721 5718 5715 5712 5709 5705 5702 5698 5694 5690 5686 5682 5677 5673 5668 5664 5659 5655 5650 5646 5642 5639 5636 5632
5738 5738 5738 5738 5738 5738 5738 5739 5739 5739 5738 5738 5736 5734 5732 5729 5727 5725 5722 5719 5717 5714 5710 5707 5703 5700 5696 5692 5687 5683 5678 5674 5669 5664 5660 5655 5650 5646 5642 5637 5634 5630 5627
5735 5735 5735 5735 5736 5736 5736 5737 5737 5737 5737 5736 5734 5732 5730 5728 5726 5723 5721 5718 5716 5712 5709 5705 5701 5697 5693 5689 5684 5679 5675 5670 5665 5660 5656 5651 5646 5642 5637 5633 5629 5625 5621
5732 5732 5733 5733 5734 5734 5735 5736 5736 5736 5735 5734 5733 5731 5729 5727 5725 5722 5720 5718 5715 5712 5708 5704 5699 5695 5691 5686 5681 5676 5672 5666 5661 5656 5651 5646 5642 5637 5632 5628 5623 5619 5615